Weather History for KPMD - September, 2013

Change the Weather History Date:

Monday, September 23, 2013

  Actual Average Record
Temperature  
Mean Temperature 68 °F 71 °F  
Max Temperature 87 °F 88 °F 103 °F (1949)
Min Temperature 49 °F 55 °F 39 °F (1941)
Degree Days  
Heating Degree Days 0 1  
Month to date heating degree days 2 3  
Since 1 July heating degree days 2 3  
Cooling Degree Days 3 7  
Month to date cooling degree days 330 234  
Year to date cooling degree days 2095 1716  
Growing Degree Days 18 (Base 50)    
Moisture  
Dew Point 34 °F    
Average Humidity 39    
Maximum Humidity 66    
Minimum Humidity 12    
Precipitation  
Precipitation T in 0.01 in 0.19 in (1987)
Month to date precipitation T 0.21  
Year to date precipitation 0.99 5.77  
Since 1 July precipitation 0.13 0.45  
Snow  
Snow 0.00 in - - ()
Month to date snowfall 0.0  
Since 1 July snowfall 0.0  
Since 1 September snowfall 0.0  
Snow Depth 0.00 in    
Sea Level Pressure  
Sea Level Pressure 29.93 in    
Wind  
Wind Speed 4 mph (SSE)    
Max Wind Speed 15 mph    
Max Gust Speed 18 mph    
Visibility 10 miles    
Events      
T = Trace of Precipitation, MM = Missing Value Source: NWS Daily Summary

Daily Weather History Graph

Daily Weather History Graph

Search for Another Location

Airport or City:

Trip Planner

Search our weather history database for the weather conditions in past years. The results will help you decide how hot, cold, wet, or windy it might be!

Date:

Astronomy

Sep. 23, 2013 Rise Set
Actual Time 6:41 AM PDT 6:47 PM PDT
Civil Twilight 6:16 AM PDT 7:12 PM PDT
Nautical Twilight 5:46 AM PDT 7:41 PM PDT
Astronomical Twilight 5:17 AM PDT 8:11 PM PDT
Moon 9:34 PM PDT (9/23) 10:53 AM PDT (9/23)
Length of Visible Light 12h 56m
Length of Day
12h 05m
Waning Gibbous, 80% of the Moon is Illuminated
Sep 23
Waning Gibbous
Sep 26
Last Quarter
Oct 4
New
Oct 11
First Quarter
Oct 18
Full

Hourly Weather History & Observations

Time (PDT) Temp. Dew Point Humidity Pressure Visibility Wind Dir Wind Speed Gust Speed Precip Events Conditions
12:53 AM 53.1 °F 36.0 °F 52% 29.91 in 10.0 mi Calm Calm - N/A   Clear
1:53 AM 53.1 °F 35.1 °F 50% 29.91 in 10.0 mi Calm Calm - N/A   Clear
2:53 AM 51.1 °F 36.0 °F 56% 29.91 in 10.0 mi South 3.5 mph - N/A   Clear
3:53 AM 50.0 °F 35.1 °F 57% 29.91 in 10.0 mi South 3.5 mph - N/A   Clear
4:53 AM 48.9 °F 37.0 °F 64% 29.93 in 10.0 mi SSW 4.6 mph - N/A   Clear
5:53 AM 50.0 °F 35.1 °F 57% 29.94 in 10.0 mi South 5.8 mph - N/A   Clear
6:53 AM 48.9 °F 36.0 °F 61% 29.96 in 10.0 mi South 4.6 mph - N/A   Clear
7:53 AM 55.9 °F 37.9 °F 51% 29.98 in 10.0 mi Calm Calm - N/A   Clear
8:53 AM 62.1 °F 39.9 °F 44% 29.99 in 10.0 mi Calm Calm - N/A   Clear
9:53 AM 64.9 °F 39.9 °F 40% 29.99 in 10.0 mi Calm Calm - N/A   Clear
10:53 AM 69.1 °F 39.0 °F 33% 29.99 in 10.0 mi Calm Calm - N/A   Clear
11:53 AM 73.0 °F 37.9 °F 28% 29.98 in 10.0 mi Variable 5.8 mph - N/A   Clear
12:53 PM 79.0 °F 36.0 °F 21% 29.96 in 10.0 mi NE 4.6 mph - N/A   Clear
1:53 PM 82.9 °F 33.1 °F 17% 29.92 in 10.0 mi North 10.4 mph - N/A   Clear
2:53 PM 84.9 °F 30.9 °F 14% 29.91 in 10.0 mi NE 6.9 mph 18.4 mph 0.00 in   Clear
3:53 PM 84.9 °F 30.0 °F 14% 29.89 in 10.0 mi NNE 5.8 mph - 0.00 in   Clear
4:53 PM 87.1 °F 28.0 °F 12% 29.88 in 10.0 mi NNE 4.6 mph - N/A   Clear
5:53 PM 86.0 °F 28.0 °F 12% 29.88 in 10.0 mi Calm Calm - N/A   Clear
6:53 PM 82.9 °F 28.0 °F 14% 29.88 in 10.0 mi Calm Calm - N/A   Clear
7:53 PM 75.9 °F 32.0 °F 20% 29.90 in 10.0 mi WSW 6.9 mph - N/A   Clear
8:53 PM 73.9 °F 30.9 °F 21% 29.92 in 10.0 mi SSW 10.4 mph - N/A   Clear
9:53 PM 70.0 °F 30.0 °F 23% 29.93 in 10.0 mi SSW 5.8 mph - N/A   Clear
10:53 PM 71.1 °F 30.9 °F 23% 29.92 in 10.0 mi Calm Calm - N/A   Clear
11:53 PM 64.0 °F 32.0 °F 30% 29.92 in 10.0 mi East 4.6 mph - N/A   Clear